Other Public Products
Issued by NWS Charleston, SC

Current Version | Previous Version | Graphics & Text | Print | Product List | Glossary On
Versions: 1 2 3 4 5 6 7 8 9 10 11 12 13 14 15 16 17 18 19 20 21 22 23 24 25 26 27 28 29 30 31 32 33 34 35 36 37 38 39 40 41 42 43 44 45 46 47 48 49 50
000
FPUS82 KCHS 220525
OPUCHS

TEST...KCHS/KSAV Gateway Observations...TEST
National Weather Service Charleston SC
1200 AM EST WED FEB 22 2017

NOTE: "fair" indicates few or no clouds below 12,000 feet with no
significant weather and/or obstructions to visibility.

SCZ050-WAZ558-NCZ071-TXZ119-213-PAZ071-DCZ001-FLZ074-172-MI076-
NYZ176-178-MAZ016-IL014-TNZ027-NJZ106-GAZ044-MD014-220600-
...Gateway Observations for Charleston International...

CITY           SKY/WX    TMP DP  RH WIND       PRES   REMARKS
Chas Airport   PTCLDY    59  56  89 E8        30.03F
Seattle        CLOUDY    42  37  82 E7        30.10R
Charlotte      LGT RAIN  55  48  77 E6        30.07F
Dallas DFW     CLEAR     62  40  44 NW13      29.94S
Dallas Love    CLEAR     58  46  64 CALM      29.95S
Philladelphia  CLOUDY    42  34  73 CALM      30.14F
Wash National  CLOUDY    48  39  71 S8        30.12F
Baltimore      CLOUDY    45  39  79 SE3       30.11F
Miami          LGT RAIN  71  64  78 SE12G18   29.92F
Detroit        MOCLDY    47  46  97 S5        29.92S
Newark         CLOUDY    41  33  73 SW10      30.13F
Laguardia      CLOUDY    45  33  63 SW10        N/A
J F K          MOCLDY    41  37  86 SW9       30.15F
Boston Logan   CLOUDY    38  30  73 SW10      30.12F WCI  31
Ft. Lauderdale MOCLDY    74  64  71 SE15      29.92S
Chicago O`Hare PTCLDY    50  48  93 CALM      29.85F FOG
Chicago Midway PTCLDY    57  51  80 S5        29.86F
Houston Bush   CLEAR     60  50  69 W6        29.93S
Houston Hobby  CLEAR     60  50  69 W3        29.93R
Nashville      CLOUDY    58  55  90 CALM      29.95R
Atlanta        LGT RAIN  61  59  93 E10       29.94F

$$

GAZ044-118-TXZ119-213-NCZ071-DCZ001-MDZ014-506-PAZ021-071-NJZ106-
NYZ176-178-MAZ106-OHZ011-021-055-MIZ076-KYZ091-ILZ014-INZ047-
MNZ060-220600-
...Gateway Observations for Savannah International...

CITY           SKY/WX    TMP DP  RH WIND       PRES   REMARKS
Savannah Arpt  CLOUDY    65  59  81 E7        29.97F
Atlanta        LGT RAIN  61  59  93 E10       29.94F
Charlotte      LGT RAIN  55  48  77 E6        30.07F
Dallas DFW     CLEAR     62  40  44 NW13      29.94S
Houston Bush   CLEAR     60  50  69 W6        29.93S
Wash National  CLOUDY    48  39  71 S8        30.12F
Wash Dulles    CLOUDY    47  36  65 S6        30.10F
Baltimore      CLOUDY    45  39  79 SE3       30.11F
Philadelphia   CLOUDY    42  34  73 CALM      30.14F
Newark         CLOUDY    41  33  73 SW10      30.13F
Laguardia      CLOUDY    45  33  63 SW10        N/A
J F K          MOCLDY    41  37  86 SW9       30.15F
Boston         CLOUDY    38  30  73 SW10      30.12F WCI  31
Pittsburg      CLOUDY    57  44  62 CALM      29.96R
Akron          CLOUDY    56  45  66 SW5       29.95F
Cleveland      CLOUDY    51  46  83 CALM      29.96S
Cincinnati     DRIZZLE   55  55 100 S7        29.96F FOG
Columbus       CLOUDY    52  52 100 CALM      29.95F
Detroit        MOCLDY    47  46  97 S5        29.92S
Chicago O`Hare PTCLDY    50  48  93 CALM      29.85F FOG
Minneapolis    PTCLDY    48  42  80 CALM      29.68F
Indianapolis   CLOUDY    56  53  90 S7        29.93F

$$




USA.gov is the U.S. government's official web portal to all federal, state and local government web resources and services.